Regional Weather Roundup
Issued by NWS Goodland, KS

Home | Current Version | Previous Version | Graphics & Text | Print | Product List | Glossary On
Versions: 1 2 3 4 5 6 7 8 9 10 11 12 13 14 15 16 17 18 19 20 21 22 23 24 25 26 27 28 29 30 31 32 33 34 35 36 37 38 39 40 41 42 43 44 45 46 47 48 49 50
000
ASUS43 KGLD 261608
RWRGLD

GOODLAND FORECAST AREA HOURLY WEATHER ROUNDUP
NATIONAL WEATHER SERVICE GOODLAND KS
900 AM MST FRI DEC 26 2014

...OFFICIAL OBSERVATIONS...

CITY           SKY/WX    TMP DP  RH WIND       PRES   REMARKS
GOODLAND KS    LGT SNOW  22  20  92 N12       29.97R VSB 1   WCI  10
HILL CITY KS   CLOUDY    28  21  75 NE17G26   30.00F WCI  16
IMPERIAL NEB   SNOW      22  18  85 N17       30.01F VSB 1/2 WCI   8
MCCOOK NEB     LGT SNOW  26  21  81 N20       30.01S WCI  12
AKRON CO       LGT SNOW  17  14  88 N13       29.97R FOG     WCI   4
BURLINGTON CO  LGT SNOW  20  17  88 N16       29.95R VSB 3/4 WCI   6
LIMON CO       LGT SNOW  17  13  84 N16       29.91S FOG     WCI   2
$$

...UNOFFICIAL OBSERVATIONS...

CITY           SKY/WX    TMP DP  RH WIND       PRES   REMARKS
COLBY KS       CLOUDY    25  25 100 N13       29.99R WCI  13
NORTON KS      CLOUDY    28  19  69 N15G23    29.99F WCI  17
SHARON SPRINGS   N/A     25  23  92 NE12G20     N/A  WCI  14
TRIBUNE KS     CLOUDY    27  25  93 N15       29.97R WCI  15
KIT CARSON CO    N/A     21  18  88 MISG        N/A
YUMA CO          N/A     18  14  85 N9G16       N/A
$$



USA.gov is the U.S. government's official web portal to all federal, state and local government web resources and services.